Overview Statistics Trail Chart Weather Telemetry Raw packets
 

This is the latest recevied weather packets stored in our database for station/object WS4FSC-7. If no packets are shown the sender has not sent any weather packets the latest 10 day(s).

<< 86 87 88 89 90 91 92 >>
Time Temp. Humidity Pressure Rain* Wind** Luminosity Snow
1787763772 32.22° C 64% 1017 hPa - - 69 W/m² -
1787763411 32.22° C 70% 1016 hPa - - 428 W/m² -
1787763231 32.22° C 69% 1016 hPa - - 525 W/m² -
1787763052 32.22° C 69% 1016 hPa - - 857 W/m² -
1787763016 32.22° C 69% 1016 hPa - - 999 W/m² -
1787762655 33.33° C 67% 1016 hPa - - 311 W/m² -
1787762476 32.78° C 68% 1016 hPa - - 935 W/m² -
1787762295 33.33° C 68% 1016 hPa - - 483 W/m² -
1787762116 32.78° C - - - - - -
1787761936 32.78° C 67% 1016 hPa - - 976 W/m² -
1787761757 32.78° C 69% 1016 hPa - - 966 W/m² -
1787761576 32.22° C 69% 1016 hPa - - 955 W/m² -
1787761396 32.78° C 69% 1016 hPa - - 935 W/m² -
1787761220 32.78° C 69% 1016 hPa - - 924 W/m² -
1787761036 32.78° C 68% 1016 hPa - - 911 W/m² -
1787760856 32.78° C 68% 1016 hPa - - 905 W/m² -
1787760676 32.22° C 69% 1016 hPa - - 903 W/m² -
1787760317 32.22° C 69% 1016 hPa - - 882 W/m² -
1787760136 32.22° C 69% 1016 hPa - - 876 W/m² -
1787759956 32.22° C 69% 1016 hPa - - 876 W/m² -
1787759779 32.78° C 68% 1016 hPa - - 874 W/m² -
1787759596 33.33° C 67% 1016 hPa - - 855 W/m² -
1787759235 32.78° C 65% 1016 hPa - - 844 W/m² -
1787759056 32.78° C 64% 1016 hPa - - 831 W/m² -
1787758875 32.78° C 63% 1016 hPa - - 822 W/m² -

* Rain since midnight (hover to see other rain measurements)
** Current wind speed in m/s (hover to see current wind gust speed)